Tracking 19475 objects as of 18-Jan-2019
HD Live streaming from Space Station
objects crossing your sky now

COSMOS 2115

Track COSMOS 2115 now!
10-day predictions
COSMOS 2115 is classified as:


NORAD ID: 21029
Int'l Code: 1990-114B
Perigee: 1,413.5 km
Apogee: 1,418.1 km
Inclination: 82.6 °
Period: 114.0 minutes
Semi major axis: 7786 km
RCS: 1.161 m2 (large)
Launch date: December 22, 1990
Source: Commonwealth of Independent States (former USSR) (CIS)
Launch site: PLESETSK MISSILE AND SPACE COMPLEX (PKMTR)
aabbcc
Your satellite tracking list
Your tracking list is empty




NASA's NSSDC Master Catalog

Two Line Element Set (TLE):
1 21029U 90114B   19017.34194087 +.00000004 +00000-0 -35849-4 0  9991
2 21029 082.5694 145.7180 0002914 207.2734 215.9744 12.63465721294449
Source of the keplerian elements: AFSPC